DELTA 1 DEB

Satellite information

Favourite Embed

Satellite Type and Status

DEBRISIN ORBIT

Key statistics

Satellite DELTA 1 DEB at a glance.

Uptime

18809

Days in orbit

Revolutions

≈ 13.6

Per day

Orbit

SSO

Sun Synchronous Orbit

Inclination

102.8

Latest

Satellite identification and parameters

Extended collection of information and parameters for DELTA 1 DEB.

Object identification

Identified? True

Debris? True

Object name: DELTA 1 DEB

International designator: 1973-086BM

Object number (NORAD): 7069

Object ID (CCSDS): 7069

Country: UNITED STATES OF AMERICA (US)

Current information (Y/N): Y

RCS size: SMALL

Orbital parameters

Period: 105.918 minutes

Inclination: 102.7713 deg

SMA: 7415.492 km

Apoapsis: 1218.323 km

Periapsis: 856.391 km

RAAN: 38.8578 deg

Eccentricy: 0.0244038

Argument of periapsis: 206.624 deg

Mean anomaly: 152.2182 deg

Mean motion: 13.59542625 rev/day

Mean motion (dot): 0.00001907 rev/day2

B* drag term: 0.0021924 1/REarth

Two-line elements (TLE)

Creation date: May 6, 2025, 3:54 a.m.

Reference frame: TEME

Reference center: EARTH

Epoch: May 5, 2025, 5:27 a.m. UTC

TLE line 0: 0 DELTA 1 DEB

TLE line 1: 1 07069U 73086BM 25125.22754192 .00001907 00000-0 21924-2 0 9990

TLE line 2: 2 07069 102.7713 38.8578 0244038 206.6240 152.2182 13.59542625506885

Live tracking on map

Real-time ground track for satellite DELTA 1 DEB.

In-orbit conjunctions

A list of the most updated potential collisions computed for object DELTA 1 DEB.

Target Orbit TCA Probability of collision Miss distance Type
METEOR 1-23 LEO 2025-01-30 22:49:35 0.0005567311 397.0 (m) PAYLOAD
DELTA 1 DEB SSO 2024-10-07 03:25:12 0.0001038645 270.0 (m) DEBRIS

Associated space launch

Meteorological satellite using radiometric imaging

DELTA 1 DEB was lifted into orbit during the mission ‘Delta 0300 | NOAA 3’, on board a Delta 0300 space rocket.

The launch took place on Nov. 6, 1973, 5:02 p.m. from Space Launch Complex 2W.

For more information about the launch, click the button.

Launch to space Delta 0300 | NOAA 3
Delta 0300 | NOAA 3

Agency: N/A

Status: Launch Successful

Launch date: Nov. 6, 1973, 5:02 p.m. UTC

Rocket: Delta 0300

Launch pad: Space Launch Complex 2W

Location: Vandenberg SFB, CA, USA

...

Latest news about this satellite

There are no fresh news available about this satellite. Check back as we update our databases every day.


Newsletter sign-up

Weekly statistics, charts and insights to help you stay on top of the space industry.